TimeCDT,TemperatureF,Dew PointF,Humidity,Sea Level PressureIn,VisibilityMPH,Wind Direction,Wind SpeedMPH,Gust SpeedMPH,PrecipitationIn,Events,Conditions,WindDirDegrees,DateUTC
12:15 AM,53.6,51.8,94,30.11,3.0,Calm,Calm,-,N/A,,Clear,0,2012-10-04 05:15:00
12:35 AM,53.6,51.8,94,30.11,1.5,Calm,Calm,-,N/A,,Clear,0,2012-10-04 05:35:00
12:55 AM,53.6,51.8,94,30.11,9.0,Calm,Calm,-,N/A,,Clear,0,2012-10-04 05:55:00
1:15 AM,51.8,50.0,94,30.11,1.2,Calm,Calm,-,N/A,,Clear,0,2012-10-04 06:15:00
1:35 AM,51.8,50.0,94,30.12,0.8,Calm,Calm,-,N/A,,Unknown,0,2012-10-04 06:35:00
1:55 AM,51.8,50.0,94,30.12,1.5,Calm,Calm,-,N/A,,Clear,0,2012-10-04 06:55:00
2:15 AM,53.6,51.8,94,30.12,2.0,Calm,Calm,-,N/A,,Clear,0,2012-10-04 07:15:00
2:35 AM,53.6,50.0,88,30.12,1.0,Calm,Calm,-,N/A,,Mostly Cloudy,0,2012-10-04 07:35:00
2:55 AM,53.6,51.8,94,30.12,5.0,Calm,Calm,-,N/A,,Mostly Cloudy,0,2012-10-04 07:55:00
3:15 AM,53.6,51.8,94,30.13,10.0,Calm,Calm,-,N/A,,Scattered Clouds,0,2012-10-04 08:15:00
3:35 AM,51.8,50.0,94,30.13,1.2,Calm,Calm,-,N/A,,Scattered Clouds,0,2012-10-04 08:35:00
3:55 AM,53.6,51.8,94,30.13,2.5,Calm,Calm,-,N/A,,Partly Cloudy,0,2012-10-04 08:55:00
4:15 AM,53.6,51.8,94,30.14,2.5,Calm,Calm,-,N/A,,Mostly Cloudy,0,2012-10-04 09:15:00
4:35 AM,53.6,51.8,94,30.14,0.8,Calm,Calm,-,N/A,,Mostly Cloudy,0,2012-10-04 09:35:00
4:55 AM,51.8,50.0,94,30.15,0.5,Calm,Calm,-,N/A,,Unknown,0,2012-10-04 09:55:00
5:15 AM,53.6,51.8,94,30.15,3.0,Calm,Calm,-,N/A,,Clear,0,2012-10-04 10:15:00
5:35 AM,51.8,50.0,94,30.16,5.0,Calm,Calm,-,N/A,,Partly Cloudy,0,2012-10-04 10:35:00
5:55 AM,53.6,51.8,94,30.16,5.0,Calm,Calm,-,N/A,,Scattered Clouds,0,2012-10-04 10:55:00
6:15 AM,55.4,53.6,94,30.16,7.0,Calm,Calm,-,N/A,,Partly Cloudy,0,2012-10-04 11:15:00
6:35 AM,51.8,50.0,94,30.16,0.8,Calm,Calm,-,N/A,,Mostly Cloudy,0,2012-10-04 11:35:00
6:55 AM,53.6,51.8,94,30.16,0.2,Calm,Calm,-,N/A,,Unknown,0,2012-10-04 11:55:00
7:15 AM,53.6,53.6,100,30.16,7.0,Calm,Calm,-,N/A,,Clear,0,2012-10-04 12:15:00
7:35 AM,53.6,51.8,94,30.17,7.0,Calm,Calm,-,N/A,,Clear,0,2012-10-04 12:35:00
7:55 AM,-9999,-9999,N/A,30.17,9.0,Calm,Calm,-,N/A,,Clear,0,2012-10-04 12:55:00
8:15 AM,-9999,-9999,N/A,30.18,10.0,SSW,4.6,-,N/A,,Clear,200,2012-10-04 13:15:00
8:35 AM,-9999,-9999,N/A,30.19,10.0,SSW,5.8,-,N/A,,Clear,200,2012-10-04 13:35:00
8:55 AM,-9999,-9999,N/A,30.19,10.0,SSW,6.9,-,N/A,,Clear,210,2012-10-04 13:55:00
9:15 AM,-9999,-9999,N/A,30.19,10.0,SSW,9.2,-,N/A,,Clear,210,2012-10-04 14:15:00
9:35 AM,-9999,-9999,N/A,30.20,10.0,SW,10.4,-,N/A,,Clear,230,2012-10-04 14:35:00
9:55 AM,-9999,-9999,N/A,30.20,10.0,SW,9.2,-,N/A,,Clear,220,2012-10-04 14:55:00
10:15 AM,69.8,59.0,68,30.20,10.0,SW,11.5,-,N/A,,Clear,220,2012-10-04 15:15:00
10:35 AM,69.8,59.0,68,30.20,10.0,SSW,13.8,-,N/A,,Clear,210,2012-10-04 15:35:00
10:55 AM,71.6,60.8,69,30.19,10.0,SSW,11.5,-,N/A,,Clear,210,2012-10-04 15:55:00
11:15 AM,73.4,59.0,61,30.19,10.0,SW,11.5,-,N/A,,Clear,230,2012-10-04 16:15:00
11:35 AM,73.4,60.8,65,30.18,10.0,SW,11.5,-,N/A,,Clear,220,2012-10-04 16:35:00
11:55 AM,75.2,60.8,61,30.18,10.0,SSW,11.5,-,N/A,,Clear,210,2012-10-04 16:55:00
12:15 PM,75.2,60.8,61,30.18,10.0,SSW,10.4,-,N/A,,Clear,210,2012-10-04 17:15:00
12:35 PM,75.2,60.8,61,30.17,10.0,SSW,13.8,20.7,N/A,,Clear,210,2012-10-04 17:35:00
12:55 PM,77.0,60.8,57,30.17,10.0,SSW,15.0,-,N/A,,Clear,210,2012-10-04 17:55:00
1:35 PM,78.8,60.8,54,30.16,10.0,South,15.0,-,N/A,,Clear,190,2012-10-04 18:35:00
1:55 PM,78.8,60.8,54,30.15,10.0,SSW,13.8,-,N/A,,Clear,200,2012-10-04 18:55:00
2:15 PM,78.8,60.8,54,30.14,10.0,SSW,15.0,23.0,N/A,,Clear,200,2012-10-04 19:15:00
2:35 PM,78.8,60.8,54,30.14,10.0,South,16.1,-,N/A,,Clear,190,2012-10-04 19:35:00
2:55 PM,78.8,59.0,51,30.14,10.0,SSW,13.8,20.7,N/A,,Clear,210,2012-10-04 19:55:00
3:15 PM,78.8,59.0,51,30.13,10.0,SSW,16.1,-,N/A,,Partly Cloudy,200,2012-10-04 20:15:00
3:35 PM,78.8,57.2,47,30.13,10.0,SSW,16.1,-,N/A,,Partly Cloudy,210,2012-10-04 20:35:00
3:55 PM,78.8,60.8,54,30.13,10.0,SSW,16.1,21.9,N/A,,Partly Cloudy,210,2012-10-04 20:55:00
4:15 PM,78.8,59.0,51,30.13,10.0,South,13.8,17.3,N/A,,Partly Cloudy,180,2012-10-04 21:15:00
4:35 PM,78.8,59.0,51,30.13,10.0,South,11.5,17.3,N/A,,Clear,190,2012-10-04 21:35:00
4:55 PM,77.0,57.2,50,30.13,10.0,SSW,12.7,-,N/A,,Clear,200,2012-10-04 21:55:00
5:15 PM,75.2,57.2,53,30.13,10.0,SSW,11.5,-,N/A,,Clear,200,2012-10-04 22:15:00
5:35 PM,75.2,57.2,53,30.13,10.0,SSW,10.4,-,N/A,,Clear,200,2012-10-04 22:35:00
5:55 PM,73.4,57.2,57,30.13,10.0,SSW,8.1,-,N/A,,Clear,200,2012-10-04 22:55:00
6:15 PM,71.6,57.2,60,30.13,10.0,South,5.8,-,N/A,,Clear,190,2012-10-04 23:15:00
6:35 PM,69.8,55.4,60,30.13,10.0,SSW,5.8,-,N/A,,Clear,200,2012-10-04 23:35:00
6:55 PM,68.0,55.4,64,30.14,10.0,SSW,3.5,-,N/A,,Clear,200,2012-10-04 23:55:00
7:15 PM,66.2,55.4,68,30.14,10.0,Calm,Calm,-,N/A,,Clear,0,2012-10-05 00:15:00
7:35 PM,62.6,55.4,77,30.14,10.0,Calm,Calm,-,N/A,,Clear,0,2012-10-05 00:35:00
7:55 PM,62.6,55.4,77,30.14,10.0,Calm,Calm,-,N/A,,Clear,0,2012-10-05 00:55:00
8:15 PM,60.8,55.4,82,30.14,10.0,Calm,Calm,-,N/A,,Clear,0,2012-10-05 01:15:00
8:35 PM,60.8,57.2,88,30.13,10.0,Calm,Calm,-,N/A,,Clear,0,2012-10-05 01:35:00
8:55 PM,62.6,55.4,77,30.13,10.0,WSW,3.5,-,N/A,,Clear,240,2012-10-05 01:55:00
9:15 PM,64.4,55.4,73,30.14,10.0,WSW,3.5,-,N/A,,Clear,240,2012-10-05 02:15:00
9:35 PM,62.6,55.4,77,30.14,10.0,Calm,Calm,-,N/A,,Clear,0,2012-10-05 02:35:00
9:55 PM,60.8,55.4,82,30.13,10.0,Calm,Calm,-,N/A,,Clear,0,2012-10-05 02:55:00
10:15 PM,60.8,55.4,82,30.14,10.0,Calm,Calm,-,N/A,,Clear,0,2012-10-05 03:15:00
10:35 PM,59.0,53.6,82,30.14,10.0,Calm,Calm,-,N/A,,Clear,0,2012-10-05 03:35:00
10:55 PM,57.2,53.6,88,30.14,6.0,Calm,Calm,-,N/A,,Clear,0,2012-10-05 03:55:00
11:15 PM,57.2,53.6,88,30.14,7.0,Calm,Calm,-,N/A,,Clear,0,2012-10-05 04:15:00
11:35 PM,64.4,55.4,73,30.15,10.0,Calm,Calm,-,N/A,,Clear,0,2012-10-05 04:35:00
11:55 PM,62.6,55.4,77,30.16,10.0,North,6.9,-,N/A,,Clear,10,2012-10-05 04:55:00